Location: Karaa?a�
(36.7158°N, 30.4165°E)
Time: 08:29:54
(UTC+00:00)

Aureole 1 Rocket - Pass Details

Date: 09 April 2020
Orbit: 379 x 1379 km, 73.9° (Epoch: 31 May)

Event Time Altitude Azimuth Distance (km) Brightness Sun altitude
Rises 16:48:51 0° 184° (S) 4,311 7.3 -4.9°
Reaches altitude 10° 16:51:55 10° 181° (S) 3,259 6.6 -5.5°
Maximum altitude 16:59:32 58° 105° (ESE) 1,267 4.3 -7.0°
Drops below altitude 10° 17:05:39 10° 28° (NNE) 2,635 6.2 -8.2°
Sets 17:07:54 0° 24° (NNE) 3,438 6.8 -8.6°
